Home > Weather > Yverdon-les-Bains > Past weeks

Flag for Switzerland Past Weather in Yverdon-les-Bains, Vaud, Switzerland — Yesterday and Last 2 Weeks

Now
79 °F

Partly sunny.


Feels Like: 80 °F
Forecast: 57 / 71 °F
Wind: 9 mph from West

Location: Payerne

Current Time: Jun 29, 2016 at 2:58:10 PM

Latest Report: Jun 29, 2016 at 2:00 PM


Visibility: 31 mi

Pressure: 29.89 "Hg

Humidity: 49%

Dew Point: 58 °F

Location of Yverdon-les-BainsLocation

Past Weather in Yverdon-les-Bains — Graph

°F

Yverdon-les-Bains Temperature Yesterday

Maximum temperature yesterday: 77 °F (at 4:00 PM)
Minimum temperature yesterday: 52 °F (at 5:00 AM)
Average temperature yesterday: 65 °F

High & Low Weather Summary for the Past Weeks

 TemperatureHumidityPressure
High87 °F (Jun 23, 6:00 PM)99% (Jun 22, 2:00 AM)30.28 "Hg (Jun 22, 2:00 AM)
Low48 °F (Jun 20, 6:00 AM)36% (Jun 24, 2:00 PM)29.54 "Hg (Jun 15, 5:00 PM)
Average63 °F75%30.01 "Hg
* Reported Jun 14 1:00 PM — Jun 29 1:00 PM, Yverdon-les-Bains, Weather by CustomWeather, © 2016

Note: Actual official high and low records may vary slightly from our data, if they occured in-between our weather recording intervals... More about our weather records

Advertising

Yverdon-les-Bains Weather History for the Previous 24 Hours

Scroll right to see more
 ConditionsComfort  
Time TempWeatherWind HumidityBarometerVisibility
1:00 PM
Wed, Jun 29
77 °FWarm.3 mph53%29.92 "HgN/A
12:00 PM74 °FMild.2 mph57%29.95 "HgN/A
11:00 AM73 °FPartly sunny.6 mph57%29.96 "Hg31 mi
10:00 AM71 °FMild.8 mph60%29.99 "HgN/A
9:00 AM68 °FMild.5 mph70%30.00 "HgN/A
8:00 AM67 °FOvercast.3 mph70%30.00 "Hg37 mi
7:00 AM65 °FMild.2 mph78%30.00 "HgN/A
6:00 AM63 °FMild.2 mph82%30.01 "HgN/A
5:00 AM62 °FMild.2 mph83%30.01 "HgN/A
3:00 AM62 °FCool.3 mph85%30.01 "HgN/A
2:00 AM63 °FPassing clouds.3 mph81%30.01 "Hg12 mi
1:00 AM60 °FCool.3 mph89%30.03 "HgN/A
12:00 AM63 °FMild.5 mph81%30.01 "HgN/A
11:00 PM
Tue, Jun 28
66 °FPassing clouds.3 mph70%29.99 "Hg16 mi
10:00 PM64 °FMild.3 mph82%30.00 "HgN/A
9:00 PM72 °FMild.1 mph60%29.96 "HgN/A
8:00 PM74 °FPassing clouds.5 mph57%29.95 "Hg25 mi
7:00 PM74 °FMild.6 mph55%29.94 "HgN/A
6:00 PM76 °FMild.5 mph52%29.94 "HgN/A
5:00 PM76 °FMild.3 mph49%29.96 "HgN/A
4:00 PM77 °FMild.6 mph51%29.96 "HgN/A
3:00 PM76 °FMild.3 mph50%29.99 "HgN/A
2:00 PM75 °FPassing clouds.3 mph48%30.01 "Hg25 mi
Weather by CustomWeather, © 2016

See weather overviewHow to use our weather pages